Regional Weather Roundup
Issued by NWS

Home | Current Version | Previous Version | Graphics & Text | Print | Product List | Glossary On
Versions: 1 2 3 4 5 6 7 8 9 10 11 12 13 14 15 16 17 18 19 20 21 22 23 24 25 26 27 28 29 30 31 32 33 34 35 36 37 38 39 40 41 42 43 44 45 46 47 48 49 50
000
ASUS43 KMPX 011001
RWRMN
WEATHER ROUNDUP FOR MINNESOTA
NATIONAL WEATHER SERVICE TWIN CITIES/CHANHASSEN MN
500 AM CDT SAT NOV 01 2014


NOTE: "FAIR" INDICATES FEW OR NO CLOUDS BELOW 12,000 FEET WITH NO
SIGNIFICANT WEATHER AND/OR OBSTRUCTIONS TO VISIBILITY. N/A MEANS
CURRENT SKY AND/OR WEATHER CONDITIONS ARE NOT AVAILABLE.

MNZ060>063-068>070-011100-
   Twin Cities Metro

CITY           SKY/WX    TMP DP  RH WIND       PRES   REMARKS
TWIN CITIES    CLEAR     24  17  74 SE7       30.46S WCI  16
ST PAUL        CLEAR     24  21  88 SE6       30.48S WCI  17
CRYSTAL        CLEAR     20  17  88 SE3       30.44F
BLAINE         CLEAR     23  19  86 SE3       30.44F
LAKEVILLE      CLEAR     16  12  86 CALM      30.45S
EDEN PRAIRIE   CLEAR     24  18  77 SE7       30.44S WCI  16
SOUTH ST PAUL  CLEAR     22  20  89 CALM      30.47S
LAKE ELMO      FAIR      19  18  93 CALM      30.47S
$$
MNZ001>005-007-008-013>017-022>024-027-028-011100-
   Northwest Minnesota

CITY           SKY/WX    TMP DP  RH WIND       PRES   REMARKS
BEMIDJI        MOCLDY    29  16  58 S12G22    30.30F WCI  20
HALLOCK        CLOUDY    34  19  55 S21G26    30.19F WCI  22
ROSEAU         CLOUDY    32  19  59 S12       30.24F WCI  23
WARROAD        CLOUDY    32  19  59 S8        30.26F WCI  25
THIEF RVR FALL CLOUDY    32  19  59 S14       30.24F WCI  22
CROOKSTON      CLOUDY    34  19  55 S23G29    30.24F WCI  22
FOSSTON        CLOUDY    28  18  64 S14       30.27F WCI  17
DETROIT LAKES  MOCLDY    32  19  59 S14G24    30.29F WCI  22
MOORHEAD       MOCLDY    30  19  64 S21G29    30.27F WCI  17
PARK RAPIDS    PTCLDY    23  16  74 SE9       30.33F WCI  13
MAHNOMEN       FAIR      30  19  64 S12       30.26F WCI  21
$$
MNZ006-009>011-018-025>026-011100-
   North Central Minnesota

CITY           SKY/WX    TMP DP  RH WIND       PRES   REMARKS
BAUDETTE       CLOUDY    29  19  66 S8        30.28F WCI  21
FLAG ISLAND    CLOUDY    36  25  64 S20G28    30.24F
INTL FALLS     MOCLDY    21  16  81 SE6       30.34F WCI  13
WASKISH        MOCLDY    28  19  69 CALM      30.30F
BIG FORK       MOCLDY    28  19  69 S6        30.35S WCI  22
LONGVILLE      PTCLDY    28  19  69 S10       30.35F WCI  19
GRAND RAPIDS   PTCLDY    25  18  74 SE6       30.36F WCI  18
CRANE LAKE     CLEAR     14  12  92 CALM      30.39F
ORR            PTCLDY    21  12  68 CALM      30.34F
COOK           PTCLDY    16  12  86 CALM      30.37F
WALKER         FAIR      28  15  58 S8        30.33F WCI  20
$$
MNZ012-019>021-037-011100-
   Northeast Minnesota

CITY           SKY/WX    TMP DP  RH WIND       PRES   REMARKS
DULUTH         CLEAR     22  13  68 S3        30.41R
ELY            CLEAR     12  10  92 CALM      30.39F
HIBBING        PTCLDY    11   7  84 CALM      30.38F
EVELETH        PTCLDY    12  10  92 NE3       30.40S
DULUTH HARBOR  CLEAR     27  19  74 CALM      30.46S
TWO HARBORS    CLEAR     23  18  80 NW5       30.41S WCI  17
SILVER BAY     CLEAR     16  12  86 CALM      30.41S
GRAND MARAIS     N/A     21  18  88 NW6       30.44F WCI  13
G MARAIS ARPRT CLEAR      9   3  78 CALM      30.39S
$$
MNZ029>031-032-039>041-046>048-054>057-064-011100-
   West Central Minnesota

CITY           SKY/WX    TMP DP  RH WIND       PRES   REMARKS
FERGUS FALLS   MOCLDY    28  16  59 S17       30.33F WCI  16
WHEATON        PTCLDY    25  18  74 SE12      30.32F WCI  14
MORRIS         PTCLDY    27  19  74 SE14      30.33F WCI  15
ALEXANDRIA     CLEAR     27  17  66 S13       30.35F WCI  16
ELBOW LAKE     FAIR      28  19  69 S20G25    30.32F WCI  15
WADENA         CLEAR     23  16  74 S5        30.34S WCI  17
GLENWOOD       CLEAR     25  18  74 S9        30.36F WCI  15
APPLETON       PTCLDY    28  19  69 S10       30.35F WCI  19
BENSON         CLEAR     25  18  74 S10       30.37S WCI  15
ORTONVILLE     PTCLDY    25  18  74 SE9       30.32F WCI  15
MADISON        FAIR      28  21  74 S12       30.34F WCI  18
WILLMAR        FAIR      27  18  69 S6        30.40S WCI  20
$$
MNZ033>034-036-042>043-049>051-058-059-011100-
   Central Minnesota

CITY           SKY/WX    TMP DP  RH WIND       PRES   REMARKS
ST CLOUD       PTCLDY    22  15  75 S6        30.42F WCI  14
SAUK CENTRE    FAIR      23  17  77 SE8       30.38S WCI  14
PAYNESVILLE    CLEAR     25  17  72 E12       30.39F WCI  14
AITKIN         PTCLDY    19  14  79 CALM      30.37F
PINE RIVER     CLEAR     21  18  86 SE6       30.39F WCI  14
BRAINERD       CLEAR     22  15  75 S8        30.39F WCI  12
STAPLES        PTCLDY    23  16  74 SE3       30.35F
LONG PRAIRIE   FAIR      25  18  74 SE9       30.37F WCI  15
LITTLE FALLS   PTCLDY    23  18  80 SE5       30.40F WCI  17
LITCHFIELD     CLEAR     28  19  69 SE6       30.41F WCI  22
BUFFALO        PTCLDY    21  15  79 SE3       30.45S
MAPLE LAKE     PTCLDY    26  19  76 S3        30.43F
$$
MNZ037-044-045-052-053-011100-
   East Central Minnesota

CITY           SKY/WX    TMP DP  RH WIND       PRES   REMARKS
PRINCETON      CLEAR     18  16  93 CALM      30.42F
MORA           CLEAR     18  14  86 CALM      30.44S
CAMBRIDGE      FAIR      25  16  68 CALM      30.42S
RUSH CITY      CLEAR     21  17  84 S3        30.45S
MOOSE LAKE     CLEAR     18  14  86 CALM      30.41S
HINCKLEY       FAIR      18  16  93 CALM      30.44S
CLOQUET        CLEAR     23  14  68 CALM      30.41S
MCGREGOR       PTCLDY    21  18  86 SE7       30.40F WCI  13
$$
MNZ071>073-080-081-089-090-097-098-011100-
   Southwest Minnesota

CITY           SKY/WX    TMP DP  RH WIND       PRES   REMARKS
MONTEVIDEO     CLEAR     25  18  74 S9        30.38F WCI  15
GRANITE FALLS  CLEAR     25  17  72 SE12      30.40F WCI  14
CANBY          CLEAR     25  20  81 S8        30.35F WCI  16
MARSHALL       CLEAR     27  16  63 S13       30.35F WCI  16
REDWOOD FALLS  PTCLDY    20  14  77 S7        30.40F WCI  11
OLIVIA         CLEAR     23  18  80 S7        30.40S WCI  15
PIPESTONE      PTCLDY    27  18  69 S14       30.34S WCI  15
WINDOM         PTCLDY    27  19  74 S8        30.39S WCI  18
WORTHINGTON    PTCLDY    25  18  74 S10       30.39S WCI  15
JACKSON        MOCLDY    27  18  69 S8        30.40F WCI  18
TRACY          PTCLDY    28  18  68 S14       30.37F WCI  16
SLAYTON        PTCLDY    23  18  78 S13       30.37F WCI  12
$$
MNZ065>067-074>077-082>085-091>093-011100-
   South Central Minnesota

CITY           SKY/WX    TMP DP  RH WIND       PRES   REMARKS
MANKATO        PTCLDY    23  12  63 S6        30.44R WCI  16
NEW ULM        PTCLDY    19  16  86 S7        30.42F WCI  10
ST JAMES       PTCLDY    21  16  79 SE5       30.43S WCI  15
FAIRMONT       PTCLDY    19  10  68 S8        30.42F WCI   9
GLENCOE        PTCLDY    21  16  81 SE3       30.43S
FARIBAULT      PTCLDY    19  16  86 CALM      30.44F
OWATONNA       PTCLDY    21  16  79 SE5       30.43F WCI  15
WASECA         PTCLDY    21  14  73 SE6       30.45S WCI  14
ALBERT LEA     CLEAR     21  18  86 SE5       30.44S WCI  15
$$
MNZ078>079-086>088-094>096-011100-
   Southeast Minnesota

CITY           SKY/WX    TMP DP  RH WIND       PRES   REMARKS
ROCHESTER      CLEAR     19  16  88 S7        30.45S WCI  10
RED WING       CLEAR     19  18  93 CALM      30.47R
STANTON        CLEAR     17  15  89 CALM      30.45S
DODGE CENTER   PTCLDY    21  18  86 S3        30.44S
WINONA         CLEAR     23  21  93 CALM      30.49S
AUSTIN         PTCLDY    19  16  86 MISG      30.44S
PRESTON        CLEAR     21  17  83 CALM      30.45S
$$
ABBREVIATIONS USED IN REMARKS
   TC - TEMPERATURES IN CELSIUS
  WCI - WIND CHILL INDEX
   HX - HEAT INDEX
  VSB - VISIBILITY
$$



USA.gov is the U.S. government's official web portal to all federal, state and local government web resources and services.